Location: Unspecified
(0.0000°N, 0.0000°E)
Time: 10:14:54
(UTC+00:00)

deb NNS O-4 - Visible Passes

Search period start: 09 November 2025 00:00
Search period end: 19 November 2025 00:00
Orbit: 947 x 1030 km, 89.9° (Epoch: 08 November)

Date Brightness Start Highest point End Pass type
(mag) Time Alt. Az. Time Alt. Az. Time Alt. Az.
09 Nov ? 02:51:14 10° E 02:51:52 10° E 02:52:30 10° E visible
09 Nov ? 04:30:11 10° N 04:36:17 56° W 04:42:17 10° SSW visible
10 Nov ? 03:15:53 10° NE 03:20:53 26° E 03:25:50 10° SSE visible
10 Nov ? 05:00:21 10° NNW 05:05:18 25° W 05:10:11 10° SW visible
11 Nov ? 03:43:50 10° NNE 03:49:55 58° E 03:55:55 10° S visible
12 Nov ? 04:12:47 10° N 04:18:56 64° W 04:25:00 10° SSW visible
13 Nov ? 02:58:54 10° NE 03:03:32 22° E 03:08:06 10° SE visible
13 Nov ? 04:42:45 10° NNW 04:47:56 28° W 04:53:04 10° SW visible
14 Nov ? 03:27:54 17° NNE 03:32:34 50° E 03:38:26 10° SSE visible
14 Nov ? 05:14:53 10° WNW 05:16:55 12° W 05:18:56 10° WSW visible
15 Nov ? 03:58:23 30° N 04:01:35 74° W 04:07:39 10° S visible
16 Nov ? 02:43:39 15° ENE 02:46:10 19° E 02:50:19 10° SE visible
16 Nov ? 04:28:40 27° NW 04:30:34 32° W 04:35:55 10° SSW visible
17 Nov ? 03:13:46 38° ENE 03:15:10 44° E 03:20:54 10° SSE visible
17 Nov ? 04:58:46 13° WNW 04:59:32 14° W 05:02:26 10° WSW visible
18 Nov ? 03:43:46 78° NNW 03:44:11 84° W 03:50:16 10° S visible
